Location: Brachstadt
(48.6975°N, 10.6755°E)
Time: 05:09:28
(UTC+00:00)

USA 234 - Pass Details

Date: 18 September 2020
Orbit: 1102 x 1106 km, 123.0° (Epoch: 16 October)

Event Time Altitude Azimuth Distance (km) Brightness Sun altitude
Rises 18:33:11 0° 57° (ENE) 3,927 5.8 -12.2°
Reaches altitude 10° 18:35:59 10° 67° (ENE) 2,967 5.1 -12.7°
Maximum altitude 18:41:48 33° 130° (SE) 1,760 3.9 -13.6°
Drops below altitude 10° 18:47:34 10° 192° (SSW) 2,956 5.4 -14.5°
Sets 18:50:20 0° 202° (SSW) 3,911 6.2 -14.9°
